This is the latest recevied weather packets stored in our database for station/object W8BS. If no packets are shown the sender has not sent any weather packets the latest 10 day(s).
| Time | Temp. | Humidity | Pressure | Rain* | Wind** | Luminosity | Snow |
|---|---|---|---|---|---|---|---|
| 1777485632 | 16.11° C | 93% | 1007.9 hPa | 3.05 mm | - | 176 W/m² | - |
| 1777485327 | 15.56° C | 91% | 1008.2 hPa | 0 mm | - | 141 W/m² | - |
| 1777485024 | 15.56° C | 92% | 1008.2 hPa | 0 mm | - | 77 W/m² | - |
| 1777484722 | 15.56° C | 93% | 1008.2 hPa | 0 mm | - | 129 W/m² | - |
| 1777484418 | 15.56° C | 90% | 1008.5 hPa | 0 mm | - | 160 W/m² | - |
| 1777484115 | 16.11° C | 89% | 1008.3 hPa | 0 mm | - | 116 W/m² | - |
| 1777483811 | 16.67° C | 90% | 1008.5 hPa | 0 mm | - | 94 W/m² | - |
| 1777483507 | 16.67° C | 87% | 1008.6 hPa | 0 mm | - | 98 W/m² | - |
| 1777483202 | 16.67° C | 87% | 1008.7 hPa | 0 mm | - | 118 W/m² | - |
| 1777482899 | 16.67° C | 85% | 1008.7 hPa | 0 mm | - | 73 W/m² | - |
| 1777482594 | 16.67° C | 84% | 1009 hPa | 0 mm | - | 37 W/m² | - |
| 1777482292 | 17.22° C | 86% | 1008.8 hPa | 0 mm | - | 60 W/m² | - |
| 1777481989 | 17.22° C | 86% | 1009.2 hPa | 0 mm | - | 140 W/m² | - |
| 1777481687 | 17.22° C | 87% | 1009.1 hPa | 0 mm | - | 175 W/m² | - |
| 1777481384 | 17.22° C | 87% | 1009.3 hPa | 0 mm | - | 174 W/m² | - |
| 1777481080 | 17.22° C | 87% | 1009.4 hPa | 0 mm | - | 209 W/m² | - |
| 1777480777 | 17.22° C | 88% | 1009.5 hPa | 0 mm | - | 180 W/m² | - |
| 1777480474 | 16.67° C | 88% | 1009.4 hPa | 0 mm | - | 158 W/m² | - |
| 1777480169 | 16.67° C | 88% | 1009.4 hPa | 0 mm | - | 109 W/m² | - |
| 1777479866 | 16.67° C | 87% | 1009.7 hPa | 0 mm | - | 95 W/m² | - |
| 1777479563 | 17.22° C | 86% | 1009.7 hPa | 0 mm | - | 101 W/m² | - |
| 1777479261 | 17.22° C | 85% | 1009.6 hPa | 0 mm | - | 90 W/m² | - |
| 1777478958 | 17.78° C | 85% | 1009.7 hPa | 0 mm | - | 157 W/m² | - |
| 1777478654 | 17.78° C | 86% | 1009.5 hPa | 0 mm | - | 293 W/m² | - |
| 1777478351 | 17.22° C | 86% | 1009.6 hPa | 0 mm | - | 356 W/m² | - |
* Rain latest hour (hover to see other rain measurements)
** Current wind speed in m/s (hover to see current wind gust speed)